Lapse_Rate
6.9 6.9 6.9 6.5 6.7 6.1 6.2 5.7 5.2 4.9 5.2 5.0 5.2 4.8 4.9 5.3 5.3 5.1 4.6 5.0 4.5 4.1
6.4 6.9 6.5 5.8 6.0 5.8 5.6 5.5 4.8 5.2 5.3 5.3 5.1 5.1 5.3 4.9 4.9 4.6 4.6 4.3 4.3 3.3
5.6 6.1 6.4 5.9 5.6 5.2 5.2 5.0 5.1 4.8 5.1 5.0 5.1 4.9 4.7 4.2 4.4 4.0 3.5 3.7 3.1 3.0
5.1 5.5 5.8 5.4 5.5 5.1 5.4 5.3 4.9 4.8 4.9 4.8 4.7 4.3 3.7 3.5 3.0 2.9 3.6 2.5 2.4 2.0
3.0 3.7 4.1 3.8 3.7 4.7 5.3 5.2 4.7 4.8 4.8 5.2 4.1 3.3 2.7 3.1 2.9 2.7 2.9 2.7 2.6 2.6
2.3 2.4 2.2 2.1 3.0 4.6 4.3 4.7 4.0 4.4 4.5 4.7 4.6 4.3 2.8 3.2 3.2 2.4 3.0 3.3 2.7 2.3
2.6 3.3 3.2 3.1 4.5 5.1 5.1 5.0 4.7 4.0 3.7 4.3 4.7 3.6 3.1 3.1 3.0 2.1 2.4 1.7 1.9 1.7
3.7 3.3 3.9 4.5 4.4 5.0 4.7 5.0 5.4 5.2 4.7 4.5 3.4 2.7 2.5 2.2 1.5 1.7 0.6 0.2 0.4 0.4
4.5 4.9 4.5 4.1 3.6 3.0 3.7 4.5 4.9 4.3 3.7 2.0 1.7 0.3 -0.8 0.7 1.0 0.3 0.6 -1.4 -1.6 -1.4
4.9 5.2 5.2 4.2 2.0 2.3 2.6 1.8 1.6 1.1 0.7 0.4 -0.3 -2.5 -2.0 -1.7 0.5 0.0 -1.5 -1.4 -1.2 -1.2
3.9 3.6 1.4 1.5 2.0 0.9 0.3 0.3 0.1 -0.2 -0.9 -1.0 -1.7 -2.6 -2.9 -2.8 -1.9 -2.1 -1.7 -1.0 -0.8 -1.1
1.2 1.4 1.7 1.9 0.6 -0.3 -0.5 -0.4 -0.5 -0.4 -0.9 -1.8 -2.5 -2.8 -2.2 -1.7 -2.2 -2.0 -1.6 -0.6 0.2 0.9
1.8 1.4 0.9 -0.0 -0.2 -0.3 -0.6 -1.3 -1.7 -2.1 -1.5 -1.9 -1.7 -1.0 -0.4 -0.4 -1.0 -1.4 -1.1 -0.3 -0.1 0.8
0.6 0.2 -0.3 -0.5 -0.6 -1.2 -2.4 -2.9 -2.9 -2.8 -2.4 -1.7 -0.8 -0.2 0.7 0.9 0.5 0.2 0.2 1.0 1.3 1.8
Wind_Speed
16 10 9 11 9 8 9 9 9 9 13 16 17 16 16 10 10 12 11 13 12 8
15 16 13 12 11 8 10 8 10 12 13 14 13 16 13 10 12 12 11 12 12 9
17 16 14 12 13 12 11 12 12 12 14 14 14 12 13 10 12 10 8 8 9 10
15 16 14 13 13 14 13 14 14 13 13 13 13 12 11 11 10 12 11 9 9 10
16 17 17 18 20 15 14 12 12 12 12 14 14 10 11 10 8 10 10 9 8 8
17 16 17 20 15 14 14 13 13 13 15 15 13 13 10 11 11 11 10 9 10 10
16 17 17 14 9 12 13 14 14 13 13 13 13 12 10 11 10 9 9 8 8 9
17 16 16 13 12 11 12 12 13 13 13 12 10 8 10 9 8 8 7 6 6 6
16 16 15 13 10 9 9 11 12 12 11 9 7 9 12 11 8 9 9 8 9 9
15 15 13 10 6 7 8 5 5 4 5 4 3 7 9 9 7 8 9 9 9 9
13 10 7 7 6 5 4 4 4 4 5 6 5 11 13 14 11 10 10 9 9 11
10 9 8 7 6 5 6 6 6 6 8 10 9 15 15 14 11 12 11 9 9 9
8 9 8 8 8 6 8 8 8 10 10 13 11 15 16 13 9 11 8 9 10 10
9 10 10 10 9 9 10 10 10 12 10 12 10 11 16 14 8 7 7 6 5 5
Wind_Direction
197 199 198 191 196 203 209 210 202 208 219 223 224 226 229 233 233 230 233 235 228 224
196 204 202 195 196 202 209 208 207 215 218 226 228 228 225 225 231 227 228 228 225 217
199 202 207 207 210 206 208 206 210 212 217 220 223 224 223 230 236 227 223 226 213 220
197 202 207 214 218 218 219 217 218 220 225 227 226 218 212 217 217 215 226 207 202 211
193 198 206 216 220 220 228 228 230 228 230 233 223 206 205 225 228 222 220 222 205 214
202 207 213 220 216 219 221 218 215 217 222 228 228 222 218 217 214 214 216 218 211 194
204 208 219 230 218 216 221 226 224 221 224 228 228 217 210 209 213 208 215 202 196 178
209 214 228 226 218 210 209 222 227 233 234 230 218 207 195 201 190 178 156 140 140 145
212 213 221 224 224 204 207 219 224 223 216 202 206 200 184 172 169 157 148 123 108 93
209 216 218 216 183 191 203 191 195 178 161 155 129 142 143 126 132 130 120 118 113 98
193 191 153 155 167 143 136 138 120 110 107 100 84 102 105 101 103 98 95 100 102 109
153 148 157 159 142 123 119 111 105 107 108 106 98 100 105 104 97 91 84 80 86 93
144 141 130 121 117 108 104 100 95 85 84 92 96 96 96 99 103 99 98 92 93 99
109 113 116 113 111 109 104 97 88 85 75 78 85 88 95 98 104 116 114 115 112 105